TimeEST,TemperatureF,Dew PointF,Humidity,Sea Level PressureIn,VisibilityMPH,Wind Direction,Wind SpeedMPH,Gust SpeedMPH,PrecipitationIn,Events,Conditions,WindDirDegrees,DateUTC
12:54 AM,24.1,19.9,84,29.83,7.0,WSW,4.6,-,N/A,,Mostly Cloudy,250,2013-02-14 05:54:00
1:54 AM,27.0,21.9,81,29.84,8.0,West,6.9,-,N/A,,Overcast,260,2013-02-14 06:54:00
2:54 AM,27.0,21.9,81,29.85,8.0,West,5.8,-,N/A,,Overcast,260,2013-02-14 07:54:00
3:54 AM,25.0,21.0,85,29.86,7.0,WSW,3.5,-,N/A,,Scattered Clouds,240,2013-02-14 08:54:00
4:54 AM,24.1,21.0,88,29.88,6.0,WSW,3.5,-,N/A,,Overcast,250,2013-02-14 09:54:00
5:54 AM,27.0,23.0,85,29.89,6.0,WSW,3.5,-,N/A,,Overcast,240,2013-02-14 10:54:00
6:54 AM,28.0,23.0,81,29.91,6.0,WSW,3.5,-,N/A,,Haze,250,2013-02-14 11:54:00
7:54 AM,28.9,24.1,82,29.93,5.0,SSW,3.5,-,N/A,,Haze,210,2013-02-14 12:54:00
8:54 AM,30.9,25.0,79,29.94,6.0,Calm,Calm,-,N/A,,Overcast,0,2013-02-14 13:54:00
9:54 AM,30.9,24.1,76,29.94,10.0,SSW,12.7,-,N/A,,Overcast,200,2013-02-14 14:54:00
10:47 AM,32.0,24.8,75,29.90,10.0,South,9.2,-,N/A,,Overcast,180,2013-02-14 15:47:00
10:54 AM,33.1,24.1,70,29.92,10.0,SSW,9.2,-,N/A,,Mostly Cloudy,200,2013-02-14 15:54:00
11:54 AM,36.0,24.1,62,29.90,10.0,South,6.9,-,N/A,,Mostly Cloudy,170,2013-02-14 16:54:00
12:54 PM,37.9,23.0,55,29.87,10.0,South,8.1,-,N/A,,Overcast,190,2013-02-14 17:54:00
1:54 PM,39.9,23.0,51,29.84,10.0,SSW,5.8,-,N/A,,Overcast,200,2013-02-14 18:54:00
2:54 PM,41.0,25.0,53,29.83,10.0,South,5.8,-,N/A,,Overcast,170,2013-02-14 19:54:00
3:54 PM,42.1,28.0,58,29.83,10.0,SSW,6.9,-,N/A,,Overcast,210,2013-02-14 20:54:00
4:54 PM,39.9,30.9,70,29.83,9.0,SSW,8.1,-,0.00,Rain,Light Rain,200,2013-02-14 21:54:00
5:16 PM,39.2,32.0,75,29.81,7.0,SSW,10.4,-,0.00,Rain,Light Rain,210,2013-02-14 22:16:00
5:54 PM,37.9,32.0,79,29.83,10.0,SSW,8.1,-,0.00,Rain,Light Rain,210,2013-02-14 22:54:00
6:24 PM,37.4,32.0,81,29.82,8.0,SSW,6.9,-,0.01,Rain,Light Rain,210,2013-02-14 23:24:00
6:54 PM,37.9,33.1,83,29.84,7.0,SSW,5.8,-,0.01,Rain,Light Rain,200,2013-02-14 23:54:00
7:32 PM,37.4,33.8,87,29.82,9.0,South,6.9,-,0.01,Rain,Light Rain,190,2013-02-15 00:32:00
7:54 PM,37.9,33.1,83,29.83,8.0,South,6.9,-,0.01,Rain,Light Rain,190,2013-02-15 00:54:00
8:19 PM,37.4,33.8,87,29.81,8.0,SSW,8.1,-,0.00,Rain,Light Rain,200,2013-02-15 01:19:00
8:54 PM,37.0,33.1,86,29.82,7.0,SSW,10.4,-,0.02,Rain,Light Rain,210,2013-02-15 01:54:00
9:54 PM,37.0,33.1,86,29.82,6.0,SSW,11.5,18.4,0.02,Rain,Light Rain,210,2013-02-15 02:54:00
9:58 PM,37.4,33.8,87,29.80,6.0,SSW,11.5,18.4,N/A,Rain,Light Rain,210,2013-02-15 02:58:00
10:22 PM,35.6,33.8,93,29.79,7.0,SSW,10.4,-,0.01,Rain-Snow,Light Rain,210,2013-02-15 03:22:00
10:30 PM,35.6,33.8,93,29.79,9.0,SSW,9.2,-,0.01,,Overcast,210,2013-02-15 03:30:00
10:54 PM,37.0,34.0,89,29.80,9.0,SSW,6.9,-,0.02,,Overcast,210,2013-02-15 03:54:00
11:14 PM,37.4,33.8,87,29.78,10.0,SSW,10.4,-,0.00,Rain-Snow,Light Rain,210,2013-02-15 04:14:00
11:54 PM,37.9,34.0,86,29.79,10.0,SSW,10.4,-,0.00,Rain-Snow,Light Rain,210,2013-02-15 04:54:00